{"data":{"norad_id":61055,"intl_designator":"2024-164F","name":"STARLINK-11268 [DTC]","alt_names":[],"object_type":"PAYLOAD","status":"ACTIVE","operator":null,"country":"US","launch_date":"2024-09-13","launch_site_code":"AFWTR","launch_vehicle":null,"mission":null,"orbit_class":"UNKNOWN","rcs_meters":null,"size_class":null,"mass_kg":null,"dimensions":null,"purposes":["comms"],"wikipedia_slug":null,"has_3d_model":false,"image_url":null,"decayed_at":null,"tle_current":{"epoch":"2026-05-24T21:49:08.984064Z","epoch_age_seconds":76902,"freshness":"FRESH","line1":"1 61055U 24164F   26144.90913176 -.00001628  00000+0 -85800-5 0  9991","line2":"2 61055  53.1595 295.2673 0001198  73.0791 287.0358 15.69716314 97391","mean_motion":15.69716314,"eccentricity":0.0001198,"inclination_deg":53.1595,"raan_deg":295.2673,"arg_perigee_deg":73.0791,"mean_anomaly_deg":287.0358,"bstar":-8.58e-6,"rev_number":9739,"period_min":91.736321216574,"perigee_km":358.90148831648,"apogee_km":360.51587614195,"semimajor_km":6737.8456822292,"source":"CELESTRAK","updated_at":"2026-05-25T13:38:19.354025Z"}}}